Regional Weather Roundup
Issued by NWS

Home | Current Version | Previous Version | Graphics & Text | Print | Product List | Glossary On
Versions: 1 2 3 4 5 6 7 8 9 10 11 12 13 14 15 16 17 18 19 20 21 22 23 24 25 26 27 28 29 30 31 32 33 34 35 36 37 38 39 40 41 42 43 44 45 46 47 48 49 50
000
ASUS43 KMPX 192210
RWRMN
WEATHER ROUNDUP FOR MINNESOTA
NATIONAL WEATHER SERVICE TWIN CITIES/CHANHASSEN MN
500 PM CDT TUE AUG 19 2014


NOTE: "FAIR" INDICATES FEW OR NO CLOUDS BELOW 12,000 FEET WITH NO
SIGNIFICANT WEATHER AND/OR OBSTRUCTIONS TO VISIBILITY. N/A MEANS
CURRENT SKY AND/OR WEATHER CONDITIONS ARE NOT AVAILABLE.

MNZ060>063-068>070-192300-
   Twin Cities Metro

CITY           SKY/WX    TMP DP  RH WIND       PRES   REMARKS
TWIN CITIES    MOSUNNY   79  61  53 NW10      29.74R
ST PAUL        CLOUDY    77  61  57 N5        29.73S
CRYSTAL        PTSUNNY   82  60  47 W13       29.72S
BLAINE         PTSUNNY   79  64  61 NE3       29.73F
LAKEVILLE      PTSUNNY   75  64  69 W5        29.75S
EDEN PRAIRIE   PTSUNNY   81  64  56 N8        29.73S
SOUTH ST PAUL  PTSUNNY   80  60  51 W7        29.73S
LAKE ELMO      CLOUDY    75  63  64 CALM      29.75S
$$
MNZ001>005-007-008-013>017-022>024-027-028-192300-
   Northwest Minnesota

CITY           SKY/WX    TMP DP  RH WIND       PRES   REMARKS
BEMIDJI        MOSUNNY   73  61  66 N5        29.76F
HALLOCK        SUNNY     81  61  50 CALM      29.73F
ROSEAU         SUNNY     75  64  69 E7        29.76S
WARROAD        SUNNY     72  64  78 E9        29.77F
THIEF RVR FALL MOSUNNY   75  61  60 E7        29.76S
CROOKSTON      SUNNY     79  63  57 N6        29.75S
FOSSTON        SUNNY     81  64  57 N7        29.76F
DETROIT LAKES  SUNNY     77  61  57 NW6       29.78S
MOORHEAD       SUNNY     81  66  61 N5        29.75F
PARK RAPIDS    MOSUNNY   78  59  51 N7        29.76R
MAHNOMEN       FAIR      77  62  59 NW5       29.75S
$$
MNZ006-009>011-018-025>026-192300-
   North Central Minnesota

CITY           SKY/WX    TMP DP  RH WIND       PRES   REMARKS
BAUDETTE       PTSUNNY   73  61  65 E5        29.77S
FLAG ISLAND    SUNNY     70  61  73 CALM      29.76S
INTL FALLS     CLOUDY    71  58  63 VRB6      29.77R
WASKISH        CLOUDY    72  64  78 CALM      29.77S
BIG FORK       PTSUNNY   72  61  68 N3        29.78R
LONGVILLE      SUNNY     73  63  68 NW3       29.76S
GRAND RAPIDS   CLOUDY    73  61  64 N12       29.76S
CRANE LAKE     CLOUDY    66  61  82 CALM      29.78S
ORR            CLOUDY    68  57  68 CALM      29.75S
COOK           PTSUNNY   70  61  73 N5        29.77S
WALKER         MOCLDY    74  62  68 N3        29.76S
$$
MNZ012-019>021-037-192300-
   Northeast Minnesota

CITY           SKY/WX    TMP DP  RH WIND       PRES   REMARKS
DULUTH         MOSUNNY   71  61  70 N9        29.74S
ELY            CLOUDY    63  59  88 N6        29.77S
HIBBING        CLOUDY    73  60  63 N8        29.76R
EVELETH        CLOUDY    68  59  73 NE10      29.78R
DULUTH HARBOR  CLOUDY    64  63  94 NE10      29.74R
TWO HARBORS    CLOUDY    64  61  88 CALM      29.73S
SILVER BAY     PTSUNNY   66  63  88 NW3       29.73S
GRAND MARAIS     N/A     60  58  92 CALM      29.75R
G MARAIS ARPRT CLOUDY    63  57  82 N6        29.78R
$$
MNZ029>031-032-039>041-046>048-054>057-064-192300-
   West Central Minnesota

CITY           SKY/WX    TMP DP  RH WIND       PRES   REMARKS
FERGUS FALLS   MOSUNNY   81  59  47 N7        29.74F
WHEATON        SUNNY     79  63  57 NW6       29.77S
MORRIS         SUNNY     81  63  54 N6        29.75S
ALEXANDRIA     SUNNY     79  61  53 N8        29.78S
ELBOW LAKE     FAIR      78  64  61 NW8       29.76S
WADENA         MOSUNNY   77  61  57 NW8       29.76R
GLENWOOD       SUNNY     81  63  54 NW8       29.78R
APPLETON       SUNNY     84  63  48 NW8       29.75S
BENSON         MOSUNNY   79  64  61 N3        29.76S
ORTONVILLE     SUNNY     82  63  51 NW6       29.76S
MADISON        SUNNY     84  64  51 N5        29.77S
WILLMAR        FAIR      82  61  47 NW10      29.77S
$$
MNZ033>034-036-042>043-049>051-058-059-192300-
   Central Minnesota

CITY           SKY/WX    TMP DP  RH WIND       PRES   REMARKS
ST CLOUD       MOSUNNY   82  62  50 NW8       29.74R
SAUK CENTRE    FAIR      80  60  50 NW13      29.76S
PAYNESVILLE    SUNNY     78  60  53 W12G17    29.76S
AITKIN         MOSUNNY   79  66  65 W5        29.73S
PINE RIVER     PTSUNNY   75  64  69 NE6       29.79R
BRAINERD       MOSUNNY   74  63  68 N8        29.75S
STAPLES        CLOUDY    79  61  53 NW6       29.75S
LONG PRAIRIE   FAIR      79  59  50 NW10      29.76S
LITTLE FALLS   SUNNY     79  59  50 NW8       29.75S
LITCHFIELD       N/A     82  64  54 N8        29.75F
BUFFALO        CLOUDY    80  61  52 NW6       29.74F
MAPLE LAKE     PTSUNNY   80  65  61 W6        29.75S
$$
MNZ037-044-045-052-053-192300-
   East Central Minnesota

CITY           SKY/WX    TMP DP  RH WIND       PRES   REMARKS
PRINCETON      MOSUNNY   73  66  78 NW3       29.75R
MORA           MOSUNNY   73  59  60 NW7       29.75S
CAMBRIDGE      MOSUNNY   79  64  61 NW5       29.72F
RUSH CITY      PTSUNNY   74  67  78 NW5       29.74R
MOOSE LAKE     MOSUNNY   73  61  64 N5        29.72R
HINCKLEY       CLOUDY    73  64  73 NW6       29.73F
CLOQUET        PTSUNNY   72  61  68 N8        29.74S
MCGREGOR       MOSUNNY   75  61  60 N7        29.74S
$$
MNZ071>073-080-081-089-090-097-098-192300-
   Southwest Minnesota

CITY           SKY/WX    TMP DP  RH WIND       PRES   REMARKS
MONTEVIDEO     MOSUNNY   84  66  54 N8        29.77S
GRANITE FALLS  MOSUNNY   81  67  62 W8        29.78S
CANBY          MOSUNNY   83  63  50 NE5       29.78S
MARSHALL       SUNNY     82  63  51 N5        29.77S
REDWOOD FALLS  MOSUNNY   82  63  52 N9        29.76S
OLIVIA         MOSUNNY   81  63  54 NW9       29.76S
PIPESTONE      SUNNY     81  59  47 NW5       29.81S
WINDOM         SUNNY     81  63  54 NW5       29.79S
WORTHINGTON    MOSUNNY   84  23  10 W7        29.81F
JACKSON        MOSUNNY   81  61  50 NW9       29.80S
TRACY          MOSUNNY   82  64  53 N6        29.79S
SLAYTON        SUNNY     81  60  49 CALM      29.81S
$$
MNZ065>067-074>077-082>085-091>093-192300-
   South Central Minnesota

CITY           SKY/WX    TMP DP  RH WIND       PRES   REMARKS
MANKATO        SUNNY     79  64  61 W6        29.76S
NEW ULM        MOSUNNY   82  63  51 NW12G18   29.76S
ST JAMES         N/A     84  61  45 NW7       29.77S
FAIRMONT       PTSUNNY   82  59  44 W7        29.78S
GLENCOE        PTSUNNY   80  62  55 NW8       29.75R
FARIBAULT      MOSUNNY   79  63  57 CALM      29.76S
OWATONNA       MOSUNNY   81  63  54 CALM      29.76S
WASECA         MOSUNNY   79  59  50 W7        29.78S
ALBERT LEA     PTSUNNY   81  64  57 N3        29.77S
$$
MNZ078>079-086>088-094>096-192300-
   Southeast Minnesota

CITY           SKY/WX    TMP DP  RH WIND       PRES   REMARKS
ROCHESTER      MOSUNNY   79  63  57 W6        29.78S
RED WING       CLOUDY    82  59  44 NW9       29.73S
STANTON        CLOUDY    78  62  57 W7        29.75R
DODGE CENTER   SUNNY     77  64  65 N10       29.78S
WINONA         PTSUNNY   77  63  61 NW7       29.74S
AUSTIN         SUNNY     79  63  57 NW8       29.77F
PRESTON        SUNNY     76  66  70 NW10      29.78S
$$
ABBREVIATIONS USED IN REMARKS
   TC - TEMPERATURES IN CELSIUS
  WCI - WIND CHILL INDEX
   HX - HEAT INDEX
  VSB - VISIBILITY
$$


USA.gov is the U.S. government's official web portal to all federal, state and local government web resources and services.